Regional Weather Roundup
Issued by NWS

Home | Current Version | Previous Version | Text Only | Print | Product List | Glossary On
Versions: 1 2 3 4 5 6 7 8 9 10 11 12 13 14 15 16 17 18 19 20 21 22 23 24 25 26 27 28 29 30 31 32 33 34 35 36 37 38 39 40 41 42 43 44 45 46 47 48 49 50
550
ASUS44 KLUB 280101
RWRTX
WEST TEXAS WEATHER ROUNDUP
NATIONAL WEATHER SERVICE LUBBOCK TX
800 PM CDT WED JUL 27 2016

NOTE: "FAIR" INDICATES FEW OR NO CLOUDS BELOW 12,000 FEET WITH NO
SIGNIFICANT WEATHER AND/OR OBSTRUCTIONS TO VISIBILITY.

TXZ004-006>008-010-012-014-016-OKZ002-280200-
TEXAS PANHANDLE/OKLAHOMA PANHANDLE

CITY           SKY/WX    TMP DP  RH WIND       PRES   REMARKS
AMARILLO       CLEAR     84  58  40 SE7       30.04R
BORGER         CLOUDY    78  61  55 E20G31    30.05R
CANADIAN       TSTM      74  69  82 W17       29.98S
DALHART        SUNNY     89  57  33 S8        30.06R
DUMAS          CLOUDY    85  60  42 E16G25    30.08R
GUYMON         TSTM      70  64  81 SW14G38   30.07R
HEREFORD       PTCLDY   N/A N/A N/A S9        30.04F
PAMPA          CLOUDY    70  62  78 E33G41    30.10R
PERRYTON       MOCLDY    75  68  77 NE3       30.04R
$$

TXZ026-029-035-045-048-280200-
SOUTHERN PANHANDLE/SOUTH PLAINS/ROLLING PLAINS

CITY           SKY/WX    TMP DP  RH WIND       PRES   REMARKS
CHILDRESS      PTCLDY    92  62  36 SE6       29.91R
SEMINOLE       CLEAR     84  60  43 NE14      30.03R
LUBBOCK        MOCLDY    85  59  41 N5        30.00R
PLAINVIEW      PTCLDY    78  67  67 CALM      30.01R
SNYDER           N/A     91  62  37 NE7       29.94S
$$

TXZ052-054-060>062-072-078-127-140-154-169-280200-
PERMIAN BASIN/CONCHO VALLEY/BIG COUNTRY/EDWARDS PLATEAU

CITY           SKY/WX    TMP DP  RH WIND       PRES   REMARKS
ABILENE        PTCLDY    90  67  46 SE10      29.91S
BIG SPRING     MOCLDY    89  59  36 E10       29.96S
BROWNWOOD      PTCLDY    81  70  69 SE7       29.94R
JUNCTION       CLOUDY    80  72  76 SW5       29.95S
MIDLAND        PTCLDY    93  62  35 S16       29.95R
ODESSA         MOCLDY    95  54  25 NE9       29.96S
SAN ANGELO     PTCLDY    85  69  58 S14G22    29.91R
SONORA         CLEAR     84  70  61 SE10      29.98R
SWEETWATER     CLEAR     91  59  33 E10       29.96R
WINK           CLEAR     95  54  25 NE9       29.92F
$$

TXZ055-058-074-075-080-082-280200-
FAR WEST/SOUTHWEST MOUNTAINS/TRANS PECOS

CITY           SKY/WX    TMP DP  RH WIND       PRES   REMARKS
ALPINE         PTCLDY    86  55  34 E14       30.11S
DRYDEN           N/A     90  65  43 SE15G22   29.90R
EL PASO        PTSUNNY   90  54  29 E10       30.00S
FORT STOCKTON  CLEAR     91  58  32 E16       29.96S
GUADALUPE PASS SUNNY     83  48  29 E22       30.14S
MARFA          CLEAR     83  55  38 NE18      30.09S
PECOS          CLEAR     94  54  25 E12G18    29.92F
PRESIDIO       FAIR      92  58  31 NE8       29.90F
$$

TXZ014-016-019-021>030-083-280200
TEXAS TECH WEST TEXAS MESONET/TEXAS PANHANDLE/NORTHERN SOUTH PLAINS

CITY           SKY/WX    TMP DP  RH WIND       PRES   REMARKS
ABERNATHY 5ENE   N/A     80  68  68 CALM      30.02F
AMARILLO 9NNE    N/A     85  60  43 SE6       30.02R
AMARILLO 7SSE    N/A     83  60  45 S7        30.05S
AMHERST 1NE      N/A     83  60  46 W5        30.05S
BOOTLEG 11WNW    N/A     73  63  72 SW9       30.10F
CANADIAN 6E      N/A     73  68  83 SE12      29.95F
CAPROCK CYN SP   N/A     91  60  35 SW3       29.97S
CHILDRESS 2NNE   N/A     92  63  37 E8        29.92S
CLARENDON 2WSW   N/A     92  55  28 E6        29.99R
CLAUDE 12SW      N/A     85  60  41 E6        30.04R
DIMMITT 2NE      N/A     80  62  53 S8        30.06S
FLOYDADA 2NNE    N/A     81  64  56 NW2       30.00S
FRIONA 2NE       N/A     81  58  45 SW6       30.09R
GOODLETT 3W      N/A     92  59  32 E7        29.89S
HART 3N          N/A     81  64  57 SW6       30.06R
HEREFORD 2NW     N/A     85  50  29 S8        30.07F
MCLEAN 1E        N/A     86  61  42 E8        30.00R
MEMPHIS 1NE      N/A     94  58  29 E7        29.94R
MULESHOE 2SSW    N/A     81  61  50 S5        30.07F
OLTON 6S         N/A     80  64  57 SW7       30.04S
PALO DURO SP     N/A     87  60  41 SW5       30.05R
PAMPA 2E       HVY RAIN  66  62  85 NE30G40   30.11R
PLAINVIEW 1S     N/A     80  68  66 CALM      30.02S
SILVERTON 7ESE   N/A     87  62  42 SW5       29.99S
TULIA 2ENE       N/A     85  62  45 S5        30.04S
TURKEY 2WSW      N/A     92  62  36 SE6       29.95S
UMBARGER 3NNE    N/A     82  62  50 S9        30.05S
$$

TXZ033>036-039>041-045>048-280200
TEXAS TECH WEST TEXAS MESONET/SOUTH PLAINS

CITY           SKY/WX    TMP DP  RH WIND       PRES   REMARKS
AIKEN 3WSW       N/A     79  67  66 CALM      30.03S
ANDREWS 2NE      N/A     92  51  24 E14       30.00S
ANTON 6SSW       N/A     78  68  69 NW8       30.02F
BROWNFIELD 2S    N/A     83  58  41 N6        30.02F
DENVR CTY 7WNW   N/A     79  58  48 NE14      30.05F
GAIL 2ESE        N/A     86  61  42 N3        29.95F
LAMESA 2SE       N/A     87  56  35 NE7       29.98F
LEVELLAND 4S     N/A     77  67  71 NW9       30.04S
LUBBOCK 3WNW     N/A     85  56  36 S5        30.01S
MORTON 1ENE      N/A     81  59  46 S6        30.06F
ODONNELL 1N      N/A     88  52  29 E10       29.99F
PLAINS 3N        N/A     79  58  48 NW3       30.06F
RALLS 1SE        N/A     88  56  34 E3        30.01R
REESE CENTER     N/A     84  54  35 SE5       30.01F
SEAGRAVES 1SW    N/A     83  61  47 N7        30.03F
SEMINOLE 2NNE    N/A     84  58  41 N17       30.03R
SLATON 2NE       N/A     89  56  32 E6        30.00F
SNYDER 3E        N/A     88  67  48 NE7       29.94S
SUNDOWN 8SW      N/A     79  60  52 SW3       30.04F
TAHOKA 3NNE      N/A     85  60  43 S7        29.99F
WOLFFORTH 6SSW   N/A     80  65  59 CALM      30.01F
$$

TXZ031-032-036>038-042>044-280200-
TEXAS TECH WEST TEXAS MESONET/ROLLING PLAINS

CITY           SKY/WX    TMP DP  RH WIND       PRES   REMARKS
ASPERMONT 3NE    N/A     94  59  31 E8        29.89S
FLUVANNA 3WNW    N/A     86  62  45 E3        29.97S
GRAHAM 5SSW      N/A     91  53  27 NE2       29.98F
GUTHRIE 10WSW    N/A     95  59  30 E8        29.90S
HASKELL 1NW      N/A     89  64  42 E14       29.89R
JAYTON 1SSE      N/A     93  61  33 E9        29.90F
KNOX CITY 3NW    N/A     95  58  29 E6        29.88R
LK A HENRY 1NW   N/A     92  58  31 E5        29.93S
NORTHFIELD 1S    N/A     92  65  39 E7        29.93R
PADUCAH 10SW     N/A     91  62  37 E7        29.92S
POST 1NE         N/A     89  58  35 E6        29.95F
RRING SPRGS 3N   N/A     91  61  36 SW5       29.97R
SEYMOUR 3NW      N/A     91  65  41 SE17G23   29.88R
SPUR 1W          N/A     92  57  30 SE7       29.93S
WEINERT 2NNE     N/A     90  68  48 SE17      29.89R
WHITE RVR 6NE    N/A     89  57  33 SE5       29.96S
$$

TXZ052-054-060>062-072-078-127-140-154-169-280200-
TEXAS TECH WEST TEXAS MESONET/PERMIAN BASIN/
CONCHO VALLEY/BIG COUNTRY/EDWARDS PLATEAU

CITY           SKY/WX    TMP DP  RH WIND       PRES   REMARKS
COYANOSA 2N      N/A     92  60  34 E13       29.95S
JUNCTION 1SSW    N/A     81  74  79 S5        29.96S
MERTZON 3NNE     N/A     84  65  51 S12       29.94R
SAN ANGELO 7NW   N/A     87  64  45 SE13G18   29.93R
STRLNG CT 4WSW   N/A     92  57  31 E6        29.94S
ST LAWRNCE 5SW   N/A     90  62  38 S8        29.96S
SWEETWATR 11SW   N/A     91  62  38 E12       29.96R
WALL 1E          N/A     86  66  51 S12G17    29.94R
$$

TXZ055-058-074-075-080-082-280200-
TEXAS TECH WEST TEXAS MESONET/FAR WEST/SOUTHWEST MOUNTAINS/TRANS PECOS

CITY           SKY/WX    TMP DP  RH WIND       PRES   REMARKS
PRSMN GAP BBNP   N/A     91  58  33 NE18      29.93F
GUADLPE MTN NP   N/A     83  47  28 E12       30.17S
$$




USA.gov is the U.S. government's official web portal to all federal, state and local government web resources and services.